Location: Dammartin
(48.9032°N, 1.6195°E)
Time: 16:21:41
(UTC+00:00)

ATLAS CENTAUR R/B - Pass Details

Date: 03 February 2023
Orbit: 449 x 650 km, 64.7° (Epoch: 28 March)

Event Time Altitude Azimuth Distance (km) Brightness Sun altitude
Rises 18:56:26 0° 266° (W) 2,970 6.7 -20.3°
Reaches altitude 10° 18:59:20 10° 284° (WNW) 2,038 5.3 -20.8°
Maximum altitude 19:02:43 20° 331° (NNW) 1,469 3.8 -21.3°
Enters shadow 19:05:21 13° 11° (NNE) 1,795 3.8 -21.8°
